TRA68B EGKK-EBCI

Flight info

Callsign TRA68B
Flight time 0h 37m
Altitude 23000
Route MIMFO Y312 DVR L9 KONAN UL607 KOK
Aircraft B738/M-SDE2E3FGHIRWXY/LB1

Departure

Time 2026-05-06 16:29
Airport London Gatwick Airport (EGKK)

Arrival

Time 2026-05-06 17:06
Airport Brussels South Charleroi Airport (EBCI)
Time Latitude Longitude Altitude Speed Heading
2026-05-06 15:44 51.15589 -0.17626 204 ft 0 kts 347°
2026-05-06 16:10 51.15571 -0.17618 214 ft 4 kts 340°
2026-05-06 16:10 51.15547 -0.17600 213 ft 4 kts 321°
2026-05-06 16:11 51.15533 -0.17569 216 ft 4 kts 272°
2026-05-06 16:11 51.15533 -0.17557 210 ft 1 kts 257°
2026-05-06 16:14 51.15529 -0.17586 216 ft 6 kts 257°
2026-05-06 16:14 51.15520 -0.17652 205 ft 6 kts 257°
2026-05-06 16:14 51.15510 -0.17724 205 ft 9 kts 257°
2026-05-06 16:14 51.15491 -0.17856 204 ft 14 kts 257°
2026-05-06 16:15 51.15469 -0.18019 206 ft 15 kts 258°
2026-05-06 16:15 51.15447 -0.18183 213 ft 14 kts 258°
2026-05-06 16:15 51.15389 -0.18278 207 ft 13 kts 179°
2026-05-06 16:15 51.15319 -0.18256 204 ft 7 kts 168°
2026-05-06 16:16 51.15292 -0.18247 207 ft 2 kts 168°
2026-05-06 16:16 51.15277 -0.18242 206 ft 2 kts 168°
2026-05-06 16:16 51.15262 -0.18237 204 ft 2 kts 168°
2026-05-06 16:16 51.15219 -0.18230 210 ft 9 kts 190°
2026-05-06 16:17 51.15185 -0.18341 207 ft 16 kts 262°
2026-05-06 16:17 51.15159 -0.18530 210 ft 18 kts 257°
2026-05-06 16:17 51.15132 -0.18720 204 ft 17 kts 258°
2026-05-06 16:17 51.15108 -0.18904 207 ft 17 kts 257°
2026-05-06 16:18 51.15082 -0.19094 209 ft 19 kts 257°
2026-05-06 16:18 51.15051 -0.19315 208 ft 22 kts 257°
2026-05-06 16:18 51.15014 -0.19578 213 ft 26 kts 257°
2026-05-06 16:18 51.14974 -0.19862 204 ft 26 kts 258°
2026-05-06 16:19 51.14939 -0.20131 215 ft 24 kts 257°
2026-05-06 16:19 51.14904 -0.20383 204 ft 23 kts 257°
2026-05-06 16:19 51.14870 -0.20625 208 ft 22 kts 257°
2026-05-06 16:19 51.14839 -0.20848 211 ft 15 kts 258°
2026-05-06 16:20 51.14819 -0.21002 204 ft 10 kts 258°
2026-05-06 16:20 51.14808 -0.21083 209 ft 7 kts 257°
2026-05-06 16:20 51.14794 -0.21160 213 ft 7 kts 248°
2026-05-06 16:20 51.14773 -0.21241 204 ft 9 kts 251°
2026-05-06 16:21 51.14762 -0.21338 204 ft 9 kts 263°
2026-05-06 16:21 51.14737 -0.21401 208 ft 3 kts 208°
2026-05-06 16:21 51.14728 -0.21405 206 ft 1 kts 190°
2026-05-06 16:21 51.14726 -0.21405 210 ft 0 kts 187°
2026-05-06 16:22 51.14724 -0.21405 210 ft 2 kts 185°
2026-05-06 16:22 51.14689 -0.21379 211 ft 8 kts 141°
2026-05-06 16:23 51.14652 -0.21343 204 ft 3 kts 162°
2026-05-06 16:23 51.14623 -0.21333 211 ft 4 kts 168°
2026-05-06 16:23 51.14616 -0.21331 211 ft 0 kts 168°
2026-05-06 16:24 51.14613 -0.21330 210 ft 0 kts 167°
2026-05-06 16:25 51.14610 -0.21329 204 ft 2 kts 167°
2026-05-06 16:25 51.14609 -0.21328 204 ft 0 kts 167°
2026-05-06 16:27 51.14605 -0.21327 204 ft 4 kts 167°
2026-05-06 16:27 51.14560 -0.21300 207 ft 8 kts 149°
2026-05-06 16:28 51.14521 -0.21207 206 ft 12 kts 98°
2026-05-06 16:28 51.14529 -0.21101 210 ft 12 kts 78°
2026-05-06 16:28 51.14567 -0.20826 212 ft 53 kts 77°
2026-05-06 16:28 51.14708 -0.19816 207 ft 131 kts 78°
2026-05-06 16:29 51.14938 -0.18116 484 ft 173 kts 77°
2026-05-06 16:29 51.15153 -0.16241 1656 ft 170 kts 77°
2026-05-06 16:29 51.15358 -0.14322 2566 ft 186 kts 78°
2026-05-06 16:29 51.15620 -0.12118 2944 ft 216 kts 75°
2026-05-06 16:30 51.15986 -0.09679 3481 ft 234 kts 74°
2026-05-06 16:30 51.16243 -0.07948 3806 ft 251 kts 75°
2026-05-06 16:30 51.16730 -0.04160 4698 ft 268 kts 76°
2026-05-06 16:30 51.16981 -0.01239 5722 ft 268 kts 87°
2026-05-06 16:31 51.16915 0.01759 6285 ft 273 kts 91°
2026-05-06 16:31 51.16799 0.04806 6482 ft 278 kts 91°
2026-05-06 16:31 51.16665 0.08013 6328 ft 307 kts 92°
2026-05-06 16:31 51.16604 0.11446 7184 ft 306 kts 88°
2026-05-06 16:32 51.16643 0.14780 8428 ft 296 kts 86°
2026-05-06 16:32 51.16692 0.18000 9669 ft 287 kts 87°
2026-05-06 16:32 51.16733 0.21165 10415 ft 294 kts 87°
2026-05-06 16:32 51.16768 0.24555 10655 ft 319 kts 88°
2026-05-06 16:33 51.16793 0.28228 10856 ft 343 kts 88°
2026-05-06 16:33 51.16808 0.32131 11213 ft 360 kts 89°
2026-05-06 16:33 51.16815 0.36166 11882 ft 366 kts 89°
2026-05-06 16:34 51.16810 0.44324 13464 ft 371 kts 89°
2026-05-06 16:34 51.16805 0.47062 13917 ft 375 kts 89°
2026-05-06 16:34 51.16796 0.51252 14561 ft 379 kts 89°
2026-05-06 16:34 51.16786 0.55473 15214 ft 383 kts 89°
2026-05-06 16:35 51.16773 0.59730 15880 ft 386 kts 90°
2026-05-06 16:35 51.16760 0.64034 16540 ft 390 kts 90°
2026-05-06 16:35 51.16739 0.69862 17346 ft 396 kts 90°
2026-05-06 16:35 51.16727 0.72780 17776 ft 398 kts 90°
2026-05-06 16:36 51.16708 0.77215 18397 ft 402 kts 90°
2026-05-06 16:36 51.16687 0.81688 18933 ft 405 kts 90°
2026-05-06 16:36 51.16664 0.86197 19450 ft 409 kts 90°
2026-05-06 16:36 51.16640 0.90759 19970 ft 413 kts 90°
2026-05-06 16:37 51.16613 0.95354 20487 ft 417 kts 90°
2026-05-06 16:37 51.16584 0.99933 20994 ft 420 kts 91°
2026-05-06 16:37 51.16553 1.04616 21468 ft 425 kts 91°
2026-05-06 16:37 51.16520 1.09347 21918 ft 429 kts 91°
2026-05-06 16:38 51.16485 1.14105 22489 ft 431 kts 91°
2026-05-06 16:38 51.16447 1.18897 22929 ft 435 kts 91°
2026-05-06 16:38 51.16408 1.23751 22945 ft 439 kts 91°
2026-05-06 16:38 51.16368 1.28578 22951 ft 435 kts 91°
2026-05-06 16:39 51.16324 1.33421 22966 ft 439 kts 91°
2026-05-06 16:39 51.16241 1.38306 22962 ft 442 kts 93°
2026-05-06 16:39 51.16041 1.43228 22965 ft 447 kts 95°
2026-05-06 16:39 51.15786 1.48161 22950 ft 447 kts 95°
2026-05-06 16:40 51.15518 1.53083 22949 ft 447 kts 96°
2026-05-06 16:40 51.15251 1.58041 22962 ft 449 kts 95°
2026-05-06 16:40 51.14993 1.62984 22946 ft 447 kts 95°
2026-05-06 16:40 51.14742 1.67910 22949 ft 446 kts 95°
2026-05-06 16:41 51.14496 1.72806 22946 ft 441 kts 95°
2026-05-06 16:41 51.14252 1.77662 22951 ft 438 kts 95°
2026-05-06 16:41 51.14007 1.82491 22959 ft 437 kts 95°
2026-05-06 16:41 51.13760 1.87318 22955 ft 437 kts 96°
2026-05-06 16:42 51.13511 1.92158 22965 ft 439 kts 96°
2026-05-06 16:42 51.13258 1.97002 22962 ft 440 kts 96°
2026-05-06 16:42 51.13006 2.01793 22965 ft 440 kts 96°
2026-05-06 16:42 51.12747 2.06663 22959 ft 440 kts 96°
2026-05-06 16:43 51.12489 2.11507 22958 ft 440 kts 96°
2026-05-06 16:43 51.12229 2.16357 22955 ft 439 kts 96°
2026-05-06 16:43 51.11968 2.21190 22955 ft 438 kts 96°
2026-05-06 16:43 51.11705 2.26015 22953 ft 437 kts 96°
2026-05-06 16:44 51.11441 2.30841 22944 ft 437 kts 96°
2026-05-06 16:44 51.11175 2.35651 22950 ft 436 kts 96°
2026-05-06 16:44 51.10907 2.40461 22944 ft 436 kts 96°
2026-05-06 16:44 51.10639 2.45257 22941 ft 435 kts 96°
2026-05-06 16:45 51.10279 2.50025 22927 ft 433 kts 104°
2026-05-06 16:45 51.09462 2.54651 22537 ft 435 kts 110°
2026-05-06 16:45 51.08479 2.59177 22037 ft 430 kts 111°
2026-05-06 16:45 51.07462 2.63619 21512 ft 423 kts 111°
2026-05-06 16:46 51.06446 2.67973 20991 ft 418 kts 111°
2026-05-06 16:46 51.05440 2.72225 20454 ft 414 kts 111°
2026-05-06 16:46 51.04409 2.76530 19939 ft 410 kts 111°
2026-05-06 16:46 51.03398 2.80699 19412 ft 407 kts 111°
2026-05-06 16:47 51.02371 2.84873 18884 ft 405 kts 111°
2026-05-06 16:47 51.01337 2.89015 18364 ft 402 kts 111°
2026-05-06 16:47 51.00295 2.93134 17801 ft 400 kts 111°
2026-05-06 16:47 50.99250 2.97225 17197 ft 397 kts 111°
2026-05-06 16:48 50.98206 3.01278 16626 ft 394 kts 111°
2026-05-06 16:48 50.97168 3.05279 16062 ft 391 kts 111°
2026-05-06 16:48 50.96127 3.09266 15501 ft 389 kts 111°
2026-05-06 16:48 50.95094 3.13202 15031 ft 383 kts 112°
2026-05-06 16:49 50.94073 3.17070 14607 ft 376 kts 111°
2026-05-06 16:49 50.93069 3.20852 14245 ft 369 kts 112°
2026-05-06 16:49 50.92077 3.24564 13887 ft 363 kts 112°
2026-05-06 16:49 50.91096 3.28214 13496 ft 357 kts 112°
2026-05-06 16:50 50.90125 3.31816 13092 ft 353 kts 112°
2026-05-06 16:50 50.89175 3.35327 12704 ft 350 kts 112°
2026-05-06 16:50 50.88218 3.38867 12315 ft 347 kts 112°
2026-05-06 16:50 50.87273 3.42356 11963 ft 343 kts 112°
2026-05-06 16:51 50.86335 3.45814 11924 ft 340 kts 112°
2026-05-06 16:51 50.85405 3.49241 11918 ft 338 kts 112°
2026-05-06 16:51 50.84474 3.52670 11913 ft 340 kts 112°
2026-05-06 16:51 50.83537 3.56113 11915 ft 341 kts 112°
2026-05-06 16:52 50.82600 3.59553 11911 ft 341 kts 112°
2026-05-06 16:52 50.81656 3.63010 11911 ft 341 kts 112°
2026-05-06 16:52 50.80713 3.66451 11902 ft 341 kts 112°
2026-05-06 16:52 50.79770 3.69889 11901 ft 341 kts 112°
2026-05-06 16:53 50.78824 3.73339 11899 ft 340 kts 112°
2026-05-06 16:53 50.77883 3.76768 11856 ft 341 kts 112°
2026-05-06 16:53 50.76933 3.80226 11345 ft 345 kts 112°
2026-05-06 16:53 50.75988 3.83674 10937 ft 337 kts 112°
2026-05-06 16:54 50.75077 3.87007 10584 ft 326 kts 112°
2026-05-06 16:54 50.74194 3.90251 10238 ft 316 kts 112°
2026-05-06 16:54 50.73339 3.93397 9911 ft 307 kts 112°
2026-05-06 16:54 50.72521 3.96416 9572 ft 299 kts 112°
2026-05-06 16:55 50.71715 3.99392 9236 ft 292 kts 112°
2026-05-06 16:55 50.70922 4.02308 8877 ft 286 kts 112°
2026-05-06 16:55 50.70135 4.05188 8570 ft 284 kts 112°
2026-05-06 16:55 50.69351 4.08044 8266 ft 283 kts 112°
2026-05-06 16:56 50.68563 4.10901 7896 ft 284 kts 112°
2026-05-06 16:56 50.67770 4.13757 7553 ft 285 kts 112°
2026-05-06 16:56 50.66972 4.16610 7202 ft 284 kts 112°
2026-05-06 16:56 50.66176 4.19440 6847 ft 279 kts 112°
2026-05-06 16:57 50.65393 4.22208 6519 ft 275 kts 112°
2026-05-06 16:57 50.64613 4.24961 6234 ft 274 kts 112°
2026-05-06 16:57 50.63849 4.27654 6089 ft 266 kts 112°
2026-05-06 16:57 50.63095 4.30295 5947 ft 261 kts 112°
2026-05-06 16:58 50.62352 4.32877 5893 ft 256 kts 112°
2026-05-06 16:58 50.61621 4.35418 5882 ft 253 kts 112°
2026-05-06 16:58 50.60895 4.37940 5886 ft 253 kts 112°
2026-05-06 16:58 50.60164 4.40485 5894 ft 256 kts 112°
2026-05-06 16:59 50.59437 4.43027 5885 ft 254 kts 112°
2026-05-06 16:59 50.58709 4.45572 5879 ft 254 kts 112°
2026-05-06 16:59 50.57999 4.48055 5870 ft 250 kts 112°
2026-05-06 16:59 50.57297 4.50537 5877 ft 246 kts 109°
2026-05-06 17:00 50.57070 4.53140 5890 ft 238 kts 81°
2026-05-06 17:00 50.57444 4.55676 5757 ft 239 kts 73°
2026-05-06 17:00 50.57901 4.58160 5589 ft 234 kts 72°
2026-05-06 17:00 50.58351 4.60577 5335 ft 228 kts 72°
2026-05-06 17:01 50.58800 4.62982 4923 ft 229 kts 72°
2026-05-06 17:01 50.59244 4.65372 4605 ft 225 kts 72°
2026-05-06 17:01 50.59567 4.67782 4188 ft 228 kts 90°
2026-05-06 17:01 50.59100 4.70144 3854 ft 229 kts 123°
2026-05-06 17:02 50.57975 4.71807 3705 ft 220 kts 141°
2026-05-06 17:02 50.56698 4.73093 3372 ft 220 kts 157°
2026-05-06 17:02 50.55184 4.73278 3042 ft 221 kts 193°
2026-05-06 17:02 50.53863 4.72245 3008 ft 205 kts 212°
2026-05-06 17:03 50.52709 4.71048 2980 ft 195 kts 217°
2026-05-06 17:03 50.51905 4.69339 3008 ft 200 kts 252°
2026-05-06 17:03 50.51526 4.67198 3005 ft 205 kts 263°
2026-05-06 17:03 50.51393 4.64978 2982 ft 205 kts 258°
2026-05-06 17:04 50.50989 4.62821 2916 ft 205 kts 255°
2026-05-06 17:04 50.50495 4.60701 2713 ft 208 kts 249°
2026-05-06 17:04 50.49850 4.58638 2447 ft 213 kts 244°
2026-05-06 17:04 50.49182 4.56550 2076 ft 214 kts 248°
2026-05-06 17:05 50.48641 4.54396 1722 ft 207 kts 250°
2026-05-06 17:05 50.48065 4.52464 1582 ft 184 kts 248°
2026-05-06 17:05 50.47560 4.50667 1177 ft 174 kts 250°
2026-05-06 17:05 50.47070 4.49023 891 ft 158 kts 248°
2026-05-06 17:06 50.46638 4.47537 677 ft 143 kts 247°
2026-05-06 17:06 50.46241 4.46159 598 ft 124 kts 245°
2026-05-06 17:06 50.45975 4.45247 617 ft 60 kts 245°
2026-05-06 17:06 50.45888 4.44938 615 ft 15 kts 254°
2026-05-06 17:07 50.45924 4.44795 616 ft 13 kts 331°
2026-05-06 17:07 50.46012 4.44790 620 ft 13 kts 34°
2026-05-06 17:07 50.46052 4.44914 623 ft 13 kts 63°
2026-05-06 17:07 50.46094 4.45034 622 ft 12 kts 62°
2026-05-06 17:08 50.46127 4.45158 619 ft 12 kts 65°
2026-05-06 17:08 50.46164 4.45275 620 ft 12 kts 65°
2026-05-06 17:08 50.46204 4.45408 617 ft 15 kts 65°
2026-05-06 17:08 50.46246 4.45561 615 ft 16 kts 66°
2026-05-06 17:09 50.46296 4.45739 616 ft 20 kts 65°
2026-05-06 17:09 50.46357 4.45950 596 ft 23 kts 65°
2026-05-06 17:09 50.46432 4.46207 579 ft 29 kts 65°
2026-05-06 17:09 50.46515 4.46490 578 ft 28 kts 65°
2026-05-06 17:10 50.46587 4.46734 579 ft 15 kts 65°
2026-05-06 17:10 50.46664 4.46780 577 ft 14 kts 335°
2026-05-06 17:10 50.46734 4.46844 577 ft 13 kts 66°
2026-05-06 17:10 50.46772 4.46972 578 ft 10 kts 64°
2026-05-06 17:11 50.46808 4.47005 575 ft 3 kts 335°
2026-05-06 17:11 50.46827 4.46993 575 ft 3 kts 336°
2026-05-06 17:11 50.46839 4.46985 574 ft 0 kts 336°